This is the latest recevied weather packets stored in our database for station/object KF6YUA. If no packets are shown the sender has not sent any weather packets the latest 10 day(s).
| Time | Temp. | Humidity | Pressure | Rain* | Wind** | Luminosity | Snow |
|---|---|---|---|---|---|---|---|
| 1777972057 | 11.11° C | 99% | 1017 hPa | 3.56 mm | - | 0 W/m² | - |
| 1777971755 | 11.11° C | 99% | 1017.1 hPa | 4.83 mm | - | 0 W/m² | - |
| 1777971452 | 11.11° C | 99% | 1017 hPa | 4.83 mm | - | 0 W/m² | - |
| 1777971150 | 11.11° C | 99% | 1017 hPa | 1.78 mm | - | 0 W/m² | - |
| 1777970847 | 10.56° C | 99% | 1016.7 hPa | 0 mm | - | 0 W/m² | - |
| 1777970546 | 11.11° C | 99% | 1016.9 hPa | 0 mm | - | 0 W/m² | - |
| 1777970243 | 10.56° C | 99% | 1017.1 hPa | 0 mm | - | 0 W/m² | - |
| 1777969939 | 11.11° C | 99% | 1016.8 hPa | 0 mm | - | 0 W/m² | - |
| 1777969635 | 11.11° C | 99% | 1016.9 hPa | 0 mm | - | 0 W/m² | - |
| 1777969333 | 11.11° C | 99% | 1016.9 hPa | 0 mm | - | 0 W/m² | - |
| 1777969028 | 11.11° C | 99% | 1017 hPa | 0 mm | - | 0 W/m² | - |
| 1777968726 | 11.11° C | 99% | 1017 hPa | 0 mm | - | 0 W/m² | - |
| 1777968423 | 10.56° C | 99% | 1017.1 hPa | 0 mm | - | 0 W/m² | - |
| 1777968119 | 11.11° C | 99% | 1017.1 hPa | 0 mm | - | 0 W/m² | - |
| 1777967815 | 11.11° C | 99% | 1017.2 hPa | 0 mm | - | 0 W/m² | - |
| 1777967512 | 11.11° C | 99% | 1017.3 hPa | 0 mm | - | 0 W/m² | - |
| 1777967209 | 11.11° C | 99% | 1017.1 hPa | 0 mm | - | 0 W/m² | - |
| 1777966905 | 11.11° C | 99% | 1017.2 hPa | 0 mm | - | 0 W/m² | - |
| 1777966603 | 11.11° C | 99% | 1017.1 hPa | 0 mm | - | 0 W/m² | - |
| 1777966301 | 11.11° C | 99% | 1017.1 hPa | 0.51 mm | - | 0 W/m² | - |
| 1777965996 | 11.11° C | 99% | 1016.9 hPa | 0.51 mm | - | 0 W/m² | - |
| 1777965693 | 11.11° C | 99% | 1017.2 hPa | 0 mm | - | 0 W/m² | - |
| 1777965389 | 11.11° C | 99% | 1017 hPa | 0 mm | - | 0 W/m² | - |
| 1777965087 | 11.11° C | 99% | 1017.2 hPa | 0 mm | - | 0 W/m² | - |
| 1777964784 | 11.11° C | 99% | 1017.3 hPa | 0.51 mm | - | 0 W/m² | - |
* Rain latest hour (hover to see other rain measurements)
** Current wind speed in m/s (hover to see current wind gust speed)